Simultaneous Nadir Overpasses (SNOs) Predictions

Prediction of SNOs between NOAA-19 and METOP-C Satellite Orbit:

Table of predicted SNOs for the next 14.0 days since TLE Epoch: 3/30/2024
Index Date (NOAA-19) Time (NOAA-19) Lat,Lon (NOAA-19) SZA (NOAA-19 ) Date (METOP-C) Time (METOP-C) Lat,Lon (METOP-C) SZA (METOP-C ) Distance(km) Time Diff (sec)
1 04/04/2024 03:29:02 -80.16, -28.94 104.97 04/04/2024 03:30:12 -80.16, -28.98 104.96 0.73 70
2 04/04/2024 04:20:04 80.18, 138.53 75.05 04/04/2024 04:20:51 80.19, 138.69 75.08 3.15 47
3 04/04/2024 05:10:57 -80.24, -53.40 104.86 04/04/2024 05:11:31 -80.23, -53.55 104.87 2.84 34
4 04/04/2024 06:01:59 80.25, 114.08 75.16 04/04/2024 06:02:10 80.26, 114.13 75.17 1.08 11
5 04/04/2024 06:52:54 -80.26, -78.49 104.83 04/04/2024 06:52:51 -80.27, -78.41 104.82 1.60 3
6 04/04/2024 07:43:55 80.30, 89.32 75.23 04/04/2024 07:43:30 80.30, 89.27 75.22 1.08 25
7 04/04/2024 08:34:49 -80.31,-103.25 104.77 04/04/2024 08:34:10 -80.31,-103.28 104.78 0.53 39
8 04/04/2024 09:25:50 80.35, 64.56 75.30 04/04/2024 09:24:49 80.34, 64.41 75.26 3.18 61



Historial Predications of SNOs between NOAA-19 and METOP-C
